Regional Weather Roundup
Issued by NWS

Home | Current Version | Previous Version | Text Only | Print | Product List | Glossary On
Versions: 1 2 3 4 5 6 7 8 9 10 11 12 13 14 15 16 17 18 19 20 21 22 23 24 25 26 27 28 29 30 31 32 33 34 35 36 37 38 39 40 41 42 43 44 45 46 47 48 49 50
000
ASUS45 KCYS 210510
RWRWY

WYOMING REGIONAL WEATHER ROUNDUP
NATIONAL WEATHER SERVICE CHEYENNE WY
1100 PM MDT WED AUG 20 2014

NOTE:  "FAIR" INDICATES FEW OR NO CLOUDS BELOW 12,000 FEET
WITH NO SIGNIFICANT WEATHER AND/OR OBSTRUCTIONS TO VISIBILITY.

WYZ001-210600-
YELLOWSTONE NATIONAL PARK

CITY           SKY/WX    TMP DP  RH WIND       PRES   REMARKS
LK YELLOWSTONE   N/A     43  42  97 CALM      30.19S
W YELLOWSTONE  NOT AVBL

$$
WYZ002>013-054>058-071-098>099-210600-
NORTHERN WYOMING

CITY           SKY/WX    TMP DP  RH WIND       PRES   REMARKS
JACKSON        CLOUDY    50  50 100 CALM      30.14S
CODY           CLOUDY    61  46  59 W3        30.01S
GREYBULL       CLOUDY    67  50  54 NW23G29   29.93R
WORLAND        CLOUDY    67  46  47 N8        29.94R
SHERIDAN       MOCLDY    62  49  62 CALM      29.90R
BUFFALO        MOCLDY    64  47  53 CALM      29.98R
GILLETTE       PTCLDY    58  47  66 CALM      29.92R
HULETT         FAIR      64  50  59 MISG      29.93
NEWCASTLE      FAIR      72  45  37 MISG      29.89

$$
WYZ014>020-022>026-101>103-210600-
CENTRAL WYOMING

CITY           SKY/WX    TMP DP  RH WIND       PRES   REMARKS
BIG PINEY      LGT RAIN  52  47  83 S8        30.20R
PINEDALE       CLOUDY    52  43  71 W8        30.19R
DUBOIS         MOCLDY    48  43  81 NW10      30.15S
LANDER         MOCLDY    64  43  46 N8        30.01R
RIVERTON       PTCLDY    63  40  42 NW17      30.01R
CASPER         CLOUDY    66  45  46 SW12      29.98S
DOUGLAS        CLOUDY    68  48  48 CALM      29.97R

$$
WYZ021-027>030-104>119-210600-
SOUTHERN WYOMING

CITY           SKY/WX    TMP DP  RH WIND       PRES   REMARKS
EVANSTON       RAIN      52  48  86 NW7       30.23R
KEMMERER       RAIN      50  46  87 NW17      30.23F
FORT BRIDGER     N/A     51  49  91 N18G30    30.22R THUNDER
ROCK SPRINGS   LGT RAIN  55  47  74 N10       30.17R
DIXON          MOCLDY    55  51  86 E8        30.18S
RAWLINS        CLOUDY    57  47  69 SW5       30.13S
SARATOGA       CLOUDY    52  50  93 MISG      30.17F
LARAMIE        PTCLDY    55  44  66 SW12      30.15S
CHEYENNE       MOCLDY    66  46  48 NW10      30.07R
TORRINGTON     PTCLDY    68  50  52 W5        29.90R
PINE BLUFFS    FAIR      61  54  77 CALM      30.01S

$$


USA.gov is the U.S. government's official web portal to all federal, state and local government web resources and services.